AC4VM Weather Reports


time (UTC)temp
F
wind
direction
speed
knots
gust
knots
rain 1hr
in
rain 24hr
in
rain mn
in
humidity
%
barometer
mb
20260504011532 53 136 0.0 1.7 0.00 0.00 0.00 67 1015.1
20260504010029 55 68 0.0 0.9 0.00 0.00 0.00 62 1015.0
20260504004530 57 68 0.0 0.9 0.00 0.00 0.00 57 1014.9
20260504003032 59 68 0.0 0.0 0.00 0.00 0.00 51 1014.6
20260504001531 60 68 0.0 0.9 0.00 0.00 0.00 50 1014.6
20260504000025 61 67 0.0 0.9 0.00 0.00 0.00 49 1014.8
20260503234526 62 127 0.0 1.7 0.00 0.00 0.00 47 1014.9
20260503233034 62 127 0.0 0.9 0.00 0.00 0.00 46 1015.0
20260503231521 63 110 0.0 1.7 0.00 0.00 0.00 44 1015.2
20260503230020 64 219 0.0 2.6 0.00 0.00 0.00 41 1015.3
20260503224519 63 210 0.9 2.6 0.00 0.00 0.00 42 1015.6
20260503223017 64 84 0.9 1.7 0.00 0.00 0.00 41 1015.7
20260503221526 64 258 0.9 8.7 0.00 0.00 0.00 41 1015.7
20260503220014 64 49 0.9 6.1 0.00 0.00 0.00 44 1016.0
20260503214514 64 150 0.9 4.3 0.00 0.00 0.00 41 1016.0
20260503213011 64 249 1.7 6.1 0.00 0.00 0.00 41 1016.2
20260503211510 64 241 1.7 7.0 0.00 0.00 0.00 43 1016.3
20260503210009 65 255 3.5 10.4 0.00 0.00 0.00 40 1016.6
20260503204509 64 150 1.7 8.7 0.00 0.00 0.00 36 1016.7
20260503203006 64 281 2.6 9.6 0.00 0.00 0.00 38 1016.8
20260503201505 64 287 2.6 11.3 0.00 0.00 0.00 42 1017.1
20260503200005 64 223 3.5 11.3 0.00 0.00 0.00 41 1017.4
20260503194504 64 273 3.5 10.4 0.00 0.00 0.00 42 1017.7
20260503193002 64 303 0.9 6.1 0.00 0.00 0.00 46 1017.9
20260503191501 63 260 2.6 9.6 0.00 0.00 0.00 42 1018.2
20260503190000 63 231 0.0 3.5 0.00 0.00 0.00 49 1018.2
20260503184600 62 217 0.9 7.0 0.00 0.00 0.00 51 1018.4
20260503183058 62 270 1.7 6.1 0.00 0.00 0.00 45 1018.6
20260503181556 61 246 0.0 2.6 0.00 0.00 0.00 46 1018.8
20260503180101 59 75 4.3 8.7 0.00 0.00 0.00 46 1019.0
20260503174559 60 245 0.9 7.0 0.00 0.00 0.00 45 1019.5
20260503173057 59 262 1.7 6.1 0.00 0.00 0.00 46 1019.4
20260503171553 60 214 0.9 7.0 0.00 0.00 0.00 49 1019.7
20260503090104 40 283 0.0 1.7 0.00 0.00 0.00 91 1018.4
20260503081550 41 283 0.0 0.0 0.00 0.00 0.00 90 1018.1
20260503071556 43 320 0.0 0.0 0.00 0.00 0.00 86 1017.3
20260503054531 48 320 0.0 0.0 0.00 0.00 0.00 77 1016.9
20260503053022 48 320 0.0 0.0 0.00 0.00 0.00 79 1016.7
20260503051521 48 320 0.0 0.0 0.00 0.00 0.00 75 1016.8
20260503050033 48 320 0.0 0.0 0.00 0.00 0.00 79 1016.8
20260503044520 48 320 0.0 0.0 0.00 0.00 0.00 75 1016.6
20260503043016 49 320 0.9 1.7 0.00 0.00 0.00 72 1016.7
20260503041512 0 199 0.0 0.0 0.00 0.00 0.00 1016.5
20260503040007 51 153 0.9 1.7 0.00 0.00 0.00 64 1016.5
20260503034507 52 224 0.0 0.9 0.00 0.00 0.00 64 1016.6
20260503033006 53 224 0.0 1.7 0.00 0.00 0.00 60 1016.4
20260503031506 53 306 2.6 8.7 0.00 0.00 0.00 58 1016.4
20260503030003 54 271 3.5 10.4 0.00 0.00 0.00 57 1016.3
20260503024503 54 280 0.9 4.3 0.00 0.00 0.00 59 1016.1
20260503023100 54 322 1.7 5.2 0.00 0.00 0.00 58 1015.9
20260503021601 54 346 0.9 5.2 0.00 0.00 0.00 58 1015.8
20260503020058 54 30 2.6 6.1 0.00 0.00 0.00 57 1015.5
20260503014609 54 281 0.9 5.2 0.00 0.00 0.00 57 1015.3
20260503013053 54 2 2.6 7.0 0.00 0.00 0.00 54 1015.1